Location: Piotrkow Trybunalski
(51.4000°N, 19.6830°E)
Time: 04:51:25
(UTC+02:00)

A-11 Canister half - Pass Details

Date: 04 February 2023
Orbit: 1526 x 1682 km, 47.3° (Epoch: 25 March)

Event Time Altitude Azimuth Distance (km) Brightness Sun altitude
Rises 07:34:41 0° 256° (WSW) 4,674 11.1 1.9°
Reaches altitude 10° 07:37:43 10° 255° (WSW) 3,695 10.6 2.3°
Maximum altitude 07:46:56 69° 174° (S) 1,635 9.5 3.5°
Drops below altitude 10° 07:56:22 10° 94° (E) 3,778 12.3 4.8°
Sets 07:59:30 0° 92° (E) 4,784 12.7 5.2°
